379  
ASUS42 KMLB 181604  
RWRMLB  
HOURLY WEATHER ROUNDUP AROUND FLORIDA  
NATIONAL WEATHER SERVICE OFFICE MELBOURNE FL  
1200 PM EDT FRI AUG 18 2017  
 
CITY SKY/WX TMP DP RH WIND PRES REMARKS
 
MELBOURNE MOSUNNY 90 74 59 CALM 30.04S HX 99  
FORT PIERCE PTSUNNY 90 75 61 CALM 30.04F HX 100  
ORLANDO INTL MOSUNNY 86 75 69 CALM 30.03F  
DAYTONA BEACH CLOUDY 89 78 70 SE3 30.03F HX 103  
VERO BEACH MOSUNNY 88 76 67 E8 30.04F HX 99  

   
..ELSEWHERE ACROSS CENTRAL FLORIDA
 
 
 
CITY SKY/WX TMP DP RH WIND PRES REMARKS
 
PATRICK AFB SUNNY 86 75 71 E7 30.04S  
KSC SUNNY 88 79 74 N5 30.03S HX 104  
CAPE CANAVERAL SUNNY 90 73 57 SE7 30.03F  
TITUSVILLE PTSUNNY 90 75 62 E7 30.05S HX 100  
ORLANDO EXEC MOSUNNY 89 76 65 CALM 30.03F HX 100  
LEESBURG MOSUNNY 89 79 72 SE5 30.03F HX 104  
THE VILLAGES N/A 90 82 79 CALM 29.93F HX 111  
SANFORD SUNNY 90 75 61 MISG 30.03F HX 100  
DELAND MOSUNNY 90 75 62 S3 30.02F HX 100  
NEW SMYRNA BCH MOSUNNY 90 77 66 E8 30.04F HX 102  
ORMOND BEACH MOSUNNY 88 77 70 CALM 30.03F HX 100  
WINTER HAVEN MOSUNNY 89 70 53 VRB3 30.06S  
KISSIMMEE MOSUNNY 88 76 67 CALM 30.05F HX 99  
OKEECHOBEE MOSUNNY 90 77 66 SE6 30.04S HX 102  
TAMPA PTSUNNY 89 77 67 SW7 30.04S HX 101  

   
..NORTHERN FLORIDA
 
 
 
CITY SKY/WX TMP DP RH WIND PRES REMARKS
 
PALM COAST MOSUNNY 90 75 62 CALM 30.02F HX 100  
ST AUGUSTINE PTSUNNY 89 79 72 SE12 30.02F HX 104  
OCALA PTSUNNY 89 78 70 VRB3 30.03F HX 103  
GAINESVILLE LGT RAIN 88 77 69 VRB5 30.03F HX 100  
JACKSONVILLE PTSUNNY 88 77 69 NE10 30.01F HX 100  
TALLAHASSEE MOSUNNY 92 75 57 N5 30.01F HX 103  

   
..ALONG THE SOUTHEAST COAST TO THE KEYS
 
 
 
CITY SKY/WX TMP DP RH WIND PRES REMARKS
 
STUART MOSUNNY 91 77 62 E7 30.05F HX 105  
WEST PALM BCH MOSUNNY 94 75 54 E9 30.05S HX 105  
MIAMI MOSUNNY 91 72 53 E12 30.03F HX 98  
KEY WEST MOSUNNY 91 76 61 E10 30.03S HX 103  

   
..MARINE REPORTS
 
 
 
STATION/POSITION TIME TEMP WIND PRES WAVE SWELL
 
AIR SEA DIR/SP/G HT/PER HT/PER  
(UTC) (F) (DEG/KT/KT) (MB) (FT/S) (FT/S)  
ST AUGUSTINE FP 1500 82 82 130/ 7/ 8 1017.5R  
20NM E CAPE CANA 1550 83 85 250/ 4/ 6 1018.7F 1/ 9 2/ 9  
120 E NEW SMYRNA 1550 84 85 270/ 6/ 8 1017.6F 2/ 8 2/ 8  
TRIDENT PIER 1536 86 84 130/ 5/ 7 1019.1F  
4NM E PORT CANAV 1551 85 N/A 1/ 7  
6NM NE FPR INLET 1530 85 N/A 1/ 8  
SETTLEMENT PT GB 1500 85 60/ 3/ 4 1017.9R  

 
 
 
CLICK HERE TO GO TO PREVIOUS BULLETINS.

The Nexlab FL Page Main Text Page